When you browse on this site, cookies collect data to enhance your experience and personalize the content and advertising you see.
Visit our Privacy Policy to learn more. By continuing to use the site, you agree to this use of cookies and data.
  • In Czech Republic
  • List of Countries
  • For 7 days
  • Water Temperature
  • Weather Map
  • Weather Widgets
  • user-avatar
    Login

    Hourly Weather Kalgoorlie

    Today, 26 August, Monday

    Time Temperature Precipitation Wind Pressure Humidity
    00:00 +10°C° 0 mm 5 mps 736 mmHg 53%
    01:00 +9°C° 0 mm 5 mps 735 mmHg 57%
    02:00 +9°C° 0 mm 6 mps 735 mmHg 61%
    03:00 +8°C° 0 mm 5 mps 735 mmHg 64%
    04:00 +8°C° 0 mm 4 mps 736 mmHg 68%
    05:00 +7°C° 0 mm 4 mps 736 mmHg 72%
    06:00 +8°C° 0 mm 4 mps 736 mmHg 68%
    07:00 +8°C° 0 mm 5 mps 737 mmHg 65%
    08:00 +9°C° 0 mm 6 mps 737 mmHg 61%
    09:00 +11°C° 0 mm 6 mps 737 mmHg 55%
    10:00 +13°C° 0 mm 5 mps 737 mmHg 49%
    11:00 +15°C° 0 mm 5 mps 737 mmHg 43%
    12:00 +15°C° 0 mm 5 mps 736 mmHg 40%
    13:00 +16°C° 0 mm 5 mps 735 mmHg 37%
    14:00 +17°C° 0 mm 5 mps 735 mmHg 34%
    15:00 +16°C° 0 mm 5 mps 735 mmHg 33%
    16:00 +16°C° 0 mm 5 mps 735 mmHg 33%
    17:00 +16°C° 0 mm 5 mps 735 mmHg 33%
    18:00 +15°C° 0 mm 5 mps 735 mmHg 36%
    19:00 +14°C° 0 mm 5 mps 736 mmHg 39%
    20:00 +12°C° 0 mm 4 mps 736 mmHg 42%
    21:00 +12°C° 0 mm 4 mps 736 mmHg 44%
    22:00 +11°C° 0 mm 4 mps 736 mmHg 46%
    23:00 +11°C° 0 mm 4 mps 736 mmHg 48%

    Tomorrow, 27 August, Tuesday

    Time Temperature Precipitation Wind Pressure Humidity
    00:00 +10°C° 0 mm 4 mps 736 mmHg 49%
    01:00 +10°C° 0 mm 4 mps 736 mmHg 50%
    02:00 +8°C° 0 mm 4 mps 736 mmHg 52%
    03:00 +8°C° 0 mm 4 mps 736 mmHg 53%
    04:00 +7°C° 0 mm 4 mps 736 mmHg 55%
    05:00 +7°C° 0 mm 4 mps 736 mmHg 57%
    06:00 +8°C° 0 mm 4 mps 736 mmHg 55%
    07:00 +10°C° 0 mm 4 mps 736 mmHg 53%
    08:00 +11°C° 0 mm 4 mps 737 mmHg 51%
    09:00 +12°C° 0 mm 5 mps 737 mmHg 45%
    10:00 +14°C° 0 mm 6 mps 736 mmHg 39%
    11:00 +16°C° 0 mm 6 mps 736 mmHg 33%
    12:00 +17°C° 0 mm 6 mps 736 mmHg 29%
    13:00 +20°C° 0 mm 6 mps 735 mmHg 25%
    14:00 +21°C° 0 mm 6 mps 734 mmHg 22%
    15:00 +20°C° 0 mm 5 mps 734 mmHg 23%
    16:00 +20°C° 0 mm 4 mps 734 mmHg 24%
    17:00 +20°C° 0 mm 3 mps 734 mmHg 26%
    18:00 +18°C° 0 mm 4 mps 734 mmHg 28%
    19:00 +17°C° 0 mm 4 mps 734 mmHg 29%
    20:00 +15°C° 0 mm 4 mps 735 mmHg 31%
    21:00 +14°C° 0 mm 4 mps 735 mmHg 32%
    22:00 +14°C° 0 mm 4 mps 735 mmHg 34%
    23:00 +13°C° 0 mm 4 mps 735 mmHg 35%

    Day after tomorrow, 28 August, Wednesday

    Time Temperature Precipitation Wind Pressure Humidity
    00:00 +13°C° 0 mm 4 mps 734 mmHg 36%
    01:00 +12°C° 0 mm 4 mps 734 mmHg 37%
    02:00 +12°C° 0 mm 4 mps 734 mmHg 38%
    03:00 +12°C° 0 mm 4 mps 734 mmHg 38%
    04:00 +10°C° 0 mm 5 mps 734 mmHg 39%
    05:00 +10°C° 0 mm 5 mps 734 mmHg 39%
    06:00 +12°C° 0 mm 5 mps 734 mmHg 38%
    07:00 +13°C° 0 mm 6 mps 734 mmHg 36%
    08:00 +14°C° 0 mm 7 mps 734 mmHg 34%
    09:00 +16°C° 0 mm 7 mps 734 mmHg 31%
    10:00 +20°C° 0 mm 7 mps 734 mmHg 28%
    11:00 +23°C° 0 mm 7 mps 733 mmHg 25%
    12:00 +24°C° 0 mm 7 mps 733 mmHg 24%
    13:00 +26°C° 0 mm 7 mps 732 mmHg 23%
    14:00 +28°C° 0 mm 7 mps 731 mmHg 21%
    15:00 +27°C° 0 mm 6 mps 731 mmHg 23%
    16:00 +27°C° 0 mm 5 mps 731 mmHg 25%
    17:00 +26°C° 0 mm 3 mps 731 mmHg 26%
    18:00 +25°C° 0 mm 4 mps 731 mmHg 28%
    19:00 +22°C° 0 mm 5 mps 731 mmHg 30%
    20:00 +21°C° 0 mm 5 mps 730 mmHg 31%
    21:00 +20°C° 0 mm 6 mps 730 mmHg 32%
    22:00 +20°C° 0 mm 6 mps 730 mmHg 33%
    23:00 +19°C° 0 mm 6 mps 730 mmHg 34%

    29 August, Thursday

    Time Temperature Precipitation Wind Pressure Humidity
    00:00 +17°C° 0 mm 6 mps 730 mmHg 35%
    01:00 +17°C° 0 mm 6 mps 729 mmHg 36%
    02:00 +16°C° 0 mm 5 mps 729 mmHg 37%
    03:00 +16°C° 0 mm 5 mps 729 mmHg 38%
    04:00 +16°C° 0 mm 5 mps 729 mmHg 38%
    05:00 +15°C° 0 mm 4 mps 728 mmHg 39%
    06:00 +16°C° 0 mm 5 mps 729 mmHg 37%
    07:00 +19°C° 0 mm 5 mps 729 mmHg 35%
    08:00 +20°C° 0 mm 5 mps 730 mmHg 33%
    09:00 +23°C° 0 mm 6 mps 729 mmHg 29%
    10:00 +26°C° 0 mm 7 mps 729 mmHg 26%
    11:00 +29°C° 0 mm 9 mps 729 mmHg 22%
    12:00 +29°C° 0 mm 10 mps 728 mmHg 22%
    13:00 +31°C° 0 mm 11 mps 728 mmHg 21%
    14:00 +31°C° 0 mm 13 mps 727 mmHg 21%
    15:00 +29°C° 0 mm 11 mps 727 mmHg 23%
    16:00 +29°C° 0 mm 9 mps 727 mmHg 25%
    17:00 +28°C° 0 mm 8 mps 727 mmHg 27%
    18:00 +27°C° 0 mm 7 mps 727 mmHg 31%
    19:00 +26°C° 0 mm 7 mps 727 mmHg 34%
    20:00 +24°C° 0 mm 6 mps 727 mmHg 37%
    21:00 +23°C° 0.1 mm 6 mps 727 mmHg 44%
    22:00 +22°C° 0.1 mm 5 mps 727 mmHg 51%
    23:00 +21°C° 0.1 mm 4 mps 726 mmHg 58%

    30 August, Friday

    Time Temperature Precipitation Wind Pressure Humidity
    00:00 +20°C° 0.1 mm 5 mps 726 mmHg 63%
    01:00 +19°C° 0.1 mm 5 mps 725 mmHg 67%
    02:00 +17°C° 0.1 mm 6 mps 725 mmHg 72%
    03:00 +17°C° 0.1 mm 7 mps 725 mmHg 73%
    04:00 +17°C° 0.1 mm 8 mps 725 mmHg 74%
    05:00 +17°C° 0.1 mm 9 mps 724 mmHg 74%
    06:00 +17°C° 0 mm 10 mps 725 mmHg 71%
    07:00 +18°C° 0 mm 12 mps 725 mmHg 68%
    08:00 +18°C° 0 mm 14 mps 726 mmHg 65%
    09:00 +17°C° 1.3 mm 13 mps 726 mmHg 69%
    10:00 +14°C° 1.3 mm 12 mps 726 mmHg 74%
    11:00 +13°C° 1.3 mm 11 mps 726 mmHg 79%
    12:00 +13°C° 0.3 mm 10 mps 727 mmHg 71%
    13:00 +14°C° 0.3 mm 10 mps 727 mmHg 63%
    14:00 +15°C° 0.3 mm 9 mps 727 mmHg 56%
    15:00 +15°C° 0 mm 8 mps 728 mmHg 52%
    16:00 +15°C° 0 mm 8 mps 728 mmHg 49%
    17:00 +16°C° 0 mm 7 mps 728 mmHg 46%
    18:00 +14°C° 0 mm 6 mps 729 mmHg 49%
    19:00 +13°C° 0 mm 5 mps 730 mmHg 52%
    20:00 +12°C° 0 mm 3 mps 730 mmHg 55%
    21:00 +11°C° 0 mm 3 mps 730 mmHg 58%
    22:00 +12°C° 0 mm 2 mps 730 mmHg 60%
    23:00 +10°C° 0 mm 2 mps 730 mmHg 62%

    31 August, Saturday

    Time Temperature Precipitation Wind Pressure Humidity
    00:00 +10°C° 0 mm 2 mps 730 mmHg 63%
    01:00 +9°C° 0 mm 2 mps 730 mmHg 65%
    02:00 +9°C° 0 mm 2 mps 730 mmHg 66%
    03:00 +9°C° 0 mm 2 mps 730 mmHg 65%
    04:00 +9°C° 0 mm 3 mps 729 mmHg 64%
    05:00 +9°C° 0 mm 3 mps 729 mmHg 64%
    06:00 +10°C° 0 mm 4 mps 730 mmHg 60%
    07:00 +10°C° 0 mm 5 mps 730 mmHg 57%
    08:00 +11°C° 0 mm 6 mps 731 mmHg 54%
    09:00 +14°C° 0 mm 7 mps 730 mmHg 48%
    10:00 +16°C° 0 mm 7 mps 730 mmHg 42%
    11:00 +18°C° 0 mm 8 mps 730 mmHg 37%
    12:00 +20°C° 0 mm 8 mps 729 mmHg 34%
    13:00 +21°C° 0 mm 8 mps 729 mmHg 31%
    14:00 +22°C° 0 mm 8 mps 728 mmHg 27%
    15:00 +21°C° 0 mm 7 mps 728 mmHg 28%
    16:00 +21°C° 0 mm 6 mps 728 mmHg 30%
    17:00 +21°C° 0 mm 5 mps 728 mmHg 31%
    18:00 +19°C° 0 mm 4 mps 728 mmHg 33%
    19:00 +18°C° 0 mm 4 mps 729 mmHg 35%
    20:00 +15°C° 0 mm 4 mps 729 mmHg 38%
    21:00 +16°C° 0 mm 3 mps 729 mmHg 43%
    22:00 +14°C° 0 mm 3 mps 729 mmHg 47%
    23:00 +13°C° 0 mm 3 mps 729 mmHg 52%
    Show more